Tracking 18630 objects as of 27-May-2017
HD Live streaming from Space Station
objects crossing your sky now

COSMOS 963

Track COSMOS 963 now!
10-day predictions
COSMOS 963 is classified as:


NORAD ID: 10491
Int'l Code: 1977-109A
Perigee: 1,188.9 km
Apogee: 1,213.4 km
Inclination: 82.9 °
Period: 109.3 minutes
Semi major axis: 7572 km
RCS: 3.0327 m2 (large)
Launch date: November 24, 1977
Source: Commonwealth of Independent States (former USSR) (CIS)
Launch site: PLESETSK MISSILE AND SPACE COMPLEX (PKMTR)
Your satellite tracking list
Your tracking list is empty





NASA's NSSDC Master Catalog

Two Line Element Set (TLE):
1 10491U 77109A   17146.63899608 -.00000085 +00000-0 -25149-3 0  9996
2 10491 082.9292 332.2381 0016227 143.4246 283.8930 13.17572212899991
Source of the keplerian elements: AFSPC